W2CJS Weather Reports


Display with metric or nautical units.
time (UTC)temp
F
wind
direction
speed
MPH
gust
MPH
rain 1hr
in
rain 24hr
in
rain mn
in
humidity
%
barometer
mb
20260509051003 29 0 0.0 0.0 0.00 0.00 0.00 85 1010.6
20260509050003 29 0 0.0 0.0 0.00 0.00 0.00 85 1010.6
20260509045003 29 0 0.0 0.0 0.00 0.00 0.00 85 1010.7
20260509044003 29 0 0.0 0.0 0.00 0.00 0.00 84 1010.6
20260509043003 29 0 0.0 0.0 0.00 0.00 0.00 84 1010.6
20260509042003 30 0 0.0 0.0 0.00 0.00 0.00 83 1010.5
20260509041003 30 0 0.0 0.0 0.00 0.00 0.00 83 1010.5
20260509040003 30 0 0.0 0.0 0.00 0.00 0.00 83 1010.5
20260509035024 30 212 0.0 2.0 0.00 0.00 0.00 82 1010.5
20260509034003 30 234 1.0 3.0 0.00 0.00 0.00 82 1010.5
20260509033003 30 0 0.0 0.0 0.00 0.00 0.00 82 1010.5
20260509032003 30 0 0.0 0.0 0.00 0.00 0.00 81 1010.5
20260509031003 31 0 0.0 0.0 0.00 0.00 0.00 81 1010.5
20260509030024 31 0 0.0 0.0 0.00 0.00 0.00 81 1010.5
20260509025003 31 0 0.0 0.0 0.00 0.00 0.00 80 1010.6
20260509024003 32 234 0.0 1.0 0.00 0.00 0.00 79 1010.5
20260509023003 32 234 0.0 2.0 0.00 0.00 0.00 78 1010.5
20260509022024 32 234 1.0 2.0 0.00 0.00 0.00 77 1010.4
20260509021003 33 234 0.0 2.0 0.00 0.00 0.00 76 1010.4
20260509020003 33 0 0.0 0.0 0.00 0.00 0.00 75 1010.3
20260509015003 34 0 0.0 0.0 0.00 0.00 0.00 75 1010.1
20260509014003 35 0 0.0 0.0 0.00 0.00 0.00 73 1010.1
20260509013024 35 0 0.0 0.0 0.00 0.00 0.00 72 1009.9
20260509012024 36 0 0.0 0.0 0.00 0.00 0.00 71 1009.8
20260509011003 37 0 0.0 0.0 0.00 0.00 0.00 70 1009.6
20260509010024 37 0 0.0 0.0 0.00 0.00 0.00 68 1009.4
20260509005003 38 0 0.0 0.0 0.00 0.00 0.00 68 1009.3
20260509004003 39 0 0.0 0.0 0.00 0.00 0.00 66 1009.1
20260509003003 40 0 0.0 0.0 0.00 0.00 0.00 63 1009.0
20260509002003 41 0 0.0 0.0 0.00 0.00 0.00 61 1008.9
20260509001003 43 0 0.0 0.0 0.00 0.00 0.00 59 1008.8
20260509000003 44 0 0.0 0.0 0.00 0.00 0.00 54 1008.7
20260508235003 46 231 1.0 4.0 0.00 0.00 0.00 51 1008.7
20260508234003 47 228 3.0 7.0 0.00 0.00 0.00 43 1008.5
20260508233003 47 238 2.0 6.0 0.00 0.00 0.00 44 1008.4
20260508232024 48 226 1.0 4.0 0.00 0.00 0.00 46 1008.4
20260508231003 48 229 2.0 6.0 0.00 0.00 0.00 44 1008.4
20260508230003 48 225 2.0 7.0 0.00 0.00 0.00 42 1008.4
20260508225024 48 222 3.0 7.0 0.00 0.00 0.00 43 1008.3
20260508224003 48 229 3.0 8.0 0.00 0.00 0.00 43 1008.3
20260508223024 48 231 3.0 7.0 0.00 0.00 0.00 44 1008.3
20260508222003 49 227 3.0 6.0 0.00 0.00 0.00 44 1008.3
20260508221003 48 217 4.0 11.0 0.00 0.00 0.00 42 1008.4
20260508220003 48 224 3.0 6.0 0.00 0.00 0.00 46 1008.4
20260508215003 48 230 3.0 8.0 0.00 0.00 0.00 46 1008.5
20260508214003 47 238 3.0 8.0 0.00 0.00 0.00 46 1008.5
20260508213003 48 235 4.0 9.0 0.00 0.00 0.00 44 1008.5
20260508212003 48 266 3.0 8.0 0.00 0.00 0.00 44 1008.5
20260508211024 48 229 2.0 5.0 0.00 0.00 0.00 43 1008.4
20260508210003 48 243 3.0 10.0 0.00 0.00 0.00 44 1008.3
20260508205003 48 310 2.0 5.0 0.00 0.00 0.00 43 1008.3
20260508204024 48 253 3.0 8.0 0.00 0.00 0.00 44 1008.2
20260508203003 48 286 3.0 7.0 0.00 0.00 0.00 44 1008.2
20260508202003 48 288 3.0 8.0 0.00 0.00 0.00 43 1008.2
20260508201003 49 306 3.0 12.0 0.00 0.00 0.00 46 1008.1
20260508200003 48 229 4.0 11.0 0.00 0.00 0.00 43 1008.3
20260508195003 48 231 4.0 11.0 0.00 0.00 0.00 43 1008.3
20260508194003 48 230 4.0 10.0 0.00 0.00 0.00 44 1008.4
20260508193003 47 252 4.0 9.0 0.00 0.00 0.00 43 1008.4
20260508192003 47 343 2.0 7.0 0.00 0.00 0.00 43 1008.4
20260508191003 47 249 3.0 9.0 0.00 0.00 0.00 43 1008.4
20260508190003 47 238 3.0 8.0 0.00 0.00 0.00 44 1008.4
20260508185003 47 239 4.0 11.0 0.00 0.00 0.00 44 1008.4
20260508184003 47 238 5.0 11.0 0.00 0.00 0.00 44 1008.5
20260508183024 47 279 3.0 9.0 0.00 0.00 0.00 43 1008.4
20260508182024 47 233 5.0 14.0 0.00 0.00 0.00 44 1008.5
20260508181003 47 230 3.0 10.0 0.00 0.00 0.00 45 1008.5
20260508180003 46 238 4.0 14.0 0.00 0.00 0.00 46 1008.6
20260508175024 46 265 3.0 10.0 0.00 0.00 0.00 47 1008.6
20260508174003 46 240 4.0 8.0 0.00 0.00 0.00 44 1008.6
20260508173003 46 226 4.0 12.0 0.00 0.00 0.00 45 1008.5
20260508172003 46 240 4.0 8.0 0.00 0.00 0.00 47 1008.7
20260508171003 46 248 3.0 10.0 0.00 0.00 0.00 46 1008.7
20260508170003 46 238 4.0 11.0 0.00 0.00 0.00 48 1008.7
20260508165003 46 233 5.0 14.0 0.00 0.00 0.00 46 1008.7
20260508164953 46 233 5.0 14.0 0.00 0.00 0.00 46 1008.7
20260508163003 45 262 3.0 10.0 0.00 0.00 0.00 46 1008.7
20260508162003 45 243 2.0 8.0 0.00 0.00 0.00 46 1008.7
20260508161003 45 239 4.0 11.0 0.00 0.00 0.00 46 1008.8
20260508160003 45 237 3.0 8.0 0.00 0.00 0.00 48 1008.8
20260508155024 45 236 3.0 10.0 0.00 0.00 0.00 46 1008.8
20260508154024 45 230 3.0 10.0 0.00 0.00 0.00 45 1008.7
20260508153003 46 351 3.0 9.0 0.00 0.00 0.00 45 1008.6
20260508152003 45 236 3.0 11.0 0.00 0.00 0.00 49 1008.5
20260508151003 45 245 3.0 10.0 0.00 0.00 0.00 46 1008.5
20260508150003 45 240 2.0 8.0 0.00 0.00 0.00 47 1008.5
20260508145003 45 224 3.0 16.0 0.00 0.00 0.00 45 1008.6
20260508144024 45 234 3.0 10.0 0.00 0.00 0.00 46 1008.4
20260508143024 45 228 4.0 8.0 0.00 0.00 0.00 48 1008.6
20260508142003 44 238 4.0 12.0 0.00 0.00 0.00 47 1008.5
20260508141003 44 264 3.0 7.0 0.00 0.00 0.00 50 1008.4
20260508140003 43 249 3.0 8.0 0.00 0.00 0.00 54 1008.4
20260508135024 43 238 3.0 8.0 0.00 0.00 0.00 55 1008.5
20260508134024 43 242 3.0 6.0 0.00 0.00 0.00 56 1008.6
20260508133024 42 239 4.0 11.0 0.00 0.00 0.00 57 1008.5
20260508132003 42 236 3.0 10.0 0.00 0.00 0.00 59 1008.7
20260508131003 41 226 4.0 12.0 0.00 0.00 0.00 61 1008.8
20260508130003 41 242 3.0 11.0 0.00 0.00 0.00 62 1008.8
20260508125003 40 236 3.0 10.0 0.00 0.00 0.00 63 1008.8
20260508124024 40 231 2.0 6.0 0.00 0.00 0.00 66 1008.8
20260508123003 39 248 3.0 6.0 0.00 0.00 0.00 67 1008.9
20260508122024 39 237 3.0 7.0 0.00 0.00 0.00 68 1008.9
20260508121024 38 240 2.0 5.0 0.00 0.00 0.00 70 1009.0
20260508120003 38 231 3.0 7.0 0.00 0.00 0.00 71 1009.0
20260508115003 38 211 2.0 5.0 0.00 0.00 0.00 72 1008.9
20260508114003 37 245 2.0 5.0 0.00 0.00 0.00 73 1008.9
20260508113024 37 214 2.0 5.0 0.00 0.00 0.00 75 1008.9
20260508112003 36 313 1.0 6.0 0.00 0.00 0.00 77 1008.8
20260508111003 35 217 1.0 4.0 0.00 0.00 0.00 81 1008.7
20260508110003 34 214 2.0 5.0 0.00 0.00 0.00 83 1008.6
20260508105003 32 211 1.0 3.0 0.00 0.00 0.00 87 1008.5
20260508104003 31 211 0.0 1.0 0.00 0.00 0.00 88 1008.6
20260508103003 31 211 0.0 3.0 0.00 0.00 0.00 88 1008.5
20260508102003 31 211 0.0 1.0 0.00 0.00 0.00 88 1008.4
20260508101003 31 0 0.0 0.0 0.00 0.00 0.00 87 1008.3
20260508100003 31 202 1.0 8.0 0.00 0.00 0.00 88 1008.2
20260508095003 30 0 0.0 0.0 0.00 0.00 0.00 88 1008.1
20260508094003 30 144 0.0 2.0 0.00 0.00 0.00 89 1008.0
20260508093003 30 144 0.0 2.0 0.00 0.00 0.00 89 1008.0
20260508092003 30 0 0.0 0.0 0.00 0.00 0.00 89 1008.0
20260508091024 30 0 0.0 0.0 0.00 0.00 0.00 89 1007.9
20260508090003 30 144 1.0 2.0 0.00 0.00 0.00 89 1007.9
20260508085024 30 144 1.0 2.0 0.00 0.00 0.00 88 1007.8
20260508084003 31 0 0.0 0.0 0.00 0.00 0.00 88 1007.8
20260508083003 31 0 0.0 0.0 0.00 0.00 0.00 88 1007.8
20260508082003 31 0 0.0 0.0 0.00 0.00 0.00 88 1007.8
20260508081003 32 0 0.0 0.0 0.00 0.00 0.00 87 1007.7
20260508080003 32 0 0.0 0.0 0.00 0.00 0.00 87 1007.7
20260508075003 32 144 0.0 1.0 0.00 0.00 0.00 87 1007.6
20260508074003 32 144 0.0 1.0 0.00 0.00 0.00 87 1007.6
20260508073003 32 144 0.0 4.0 0.00 0.00 0.00 88 1007.5
20260508072004 32 144 0.0 2.0 0.00 0.00 0.00 89 1007.5
20260508071003 32 0 0.0 0.0 0.00 0.00 0.00 89 1007.5
20260508070003 31 0 0.0 0.0 0.00 0.00 0.00 90 1007.5
20260508065003 31 0 0.0 0.0 0.00 0.01 0.00 90 1007.6
20260508064003 30 144 0.0 2.0 0.00 0.01 0.00 90 1007.6
20260508063003 30 144 0.0 1.0 0.00 0.01 0.00 89 1007.6
20260508062003 30 0 0.0 0.0 0.00 0.01 0.00 89 1007.5
20260508061003 30 0 0.0 0.0 0.00 0.01 0.00 89 1007.6
20260508060024 30 0 0.0 0.0 0.00 0.01 0.00 89 1007.6
20260508055003 30 0 0.0 0.0 0.00 0.01 0.00 89 1007.7
20260508054003 30 144 0.0 1.0 0.00 0.01 0.00 89 1007.8
20260508053003 30 0 0.0 0.0 0.00 0.01 0.00 89 1007.8
20260508052003 30 144 0.0 2.0 0.00 0.01 0.00 88 1007.8